Location: City of Moscow
(46.7306°N, 116.9989°W)
Time: 13:29:46
(UTC+00:00)

Cosmos 1626 Rocket - Pass Details

Date: 16 March 2026
Orbit: 595 x 624 km, 82.5° (Epoch: 18 April)

Event Time Altitude Azimuth Distance (km) Brightness Sun altitude
Rises 13:04:58 0° 342° (NNW) 2,897 6.9 -10.0°
Reaches altitude 10° 13:07:22 10° 333° (NNW) 1,981 6.0 -9.6°
Maximum altitude 13:11:16 33° 270° (W) 1,039 4.2 -8.9°
Drops below altitude 10° 13:15:08 10° 206° (SSW) 1,950 5.8 -8.3°
Sets 13:17:29 0° 197° (SSW) 2,843 6.7 -7.9°
